Regional Weather Roundup
Issued by NWS Newport/Morehead, NC

Current Version | Previous Version | Graphics & Text | Print | Product List | Glossary Off
Versions: 1 2 3 4 5 6 7 8 9 10 11 12 13 14 15 16 17 18 19 20 21 22 23 24 25 26 27 28 29 30 31 32 33 34 35 36 37 38 39 40 41 42 43 44 45 46 47 48 49 50

356
ASUS42 KMHX 191313
RWRMHX
WEATHER ROUNDUP FOR EASTERN NORTH CAROLINA
NATIONAL WEATHER SERVICE NEWPORT/MOREHEAD CITY NC
800 AM EST SUN FEB 19 2017

NOTE: "FAIR" INDICATES FEW OR NO CLOUDS BELOW 12,000 FEET
WITH NO SIGNIFICANT WEATHER AND/OR OBSTRUCTIONS TO VISIBILITY

NCZ015>017-031-032-045>047-102-103-191400-
NORTH COAST

CITY           SKY/WX    TMP DP  RH WIND       PRES   REMARKS
EDENTON        SUNNY     55  45  69 SW5       29.91R
ELIZABETH CITY SUNNY     53  44  71 SW9       29.90R
KITTY HAWK     NOT AVBL
MANTEO         SUNNY     51  47  86 SW8       29.90R

$$

NCZ045>047-081-094-103-104-191400-
CENTRAL COAST

CITY           SKY/WX    TMP DP  RH WIND       PRES   REMARKS
FRISCO         SUNNY     57  47  69 W6        29.90F HAZE

$$

NCZ095-097-098-100-101-191400-
SOUTHERN COAST

CITY           SKY/WX    TMP DP  RH WIND       PRES   REMARKS
BEAUFORT       MOSUNNY   52  46  80 SW6       29.93R
CEDAR ISLAND   NOT AVBL
JACKSONVILLE   MOSUNNY   52  46  80 CALM      29.92S
PINEY ISLAND   SUNNY    N/A N/A N/A S5        29.92S
WILMINGTON     MOSUNNY   52  47  83 SW5       29.95R


$$

NCZ011>013-027>030-043-044-078>080-089-090>093-098-191400-
COASTAL PLAIN

CITY           SKY/WX    TMP DP  RH WIND       PRES   REMARKS
AHOSKIE          N/A     48  44  86 CALM      29.90R
CLINTON        SUNNY     50  46  87 W3        29.94R
ELIZABETHTOWN  MOSUNNY   52  47  82 W6        29.94R
GOLDSBORO      SUNNY     51  49  93 W6        29.91R
GREENVILLE     SUNNY     54  46  76 W3        29.94R
HAVELOCK       SUNNY     48  44  86 SE3       29.93R
KENANSVILLE    NOT AVBL
KINSTON        SUNNY     54  45  71 W3        29.93R
NEW BERN       SUNNY     52  46  80 SW5       29.93R
RICHLANDS      SUNNY     51  45  79 SW5       29.93R
ROCKY MOUNT    SUNNY     51  45  79 W5        29.91R
WASHINGTON     SUNNY     52  44  73 W5        29.91R
WHITEVILLE     MOSUNNY   50  46  85 CALM      29.96R

$$

AMZ130-135-150-152-154-156-158-170-250-252-270-ANZ085-086-088-633-658-670-191400-
MARINE OBSERVATIONS

STATION/POSITION TIME  TEMP    WIND        PRES    WAVE   SWELL
                       AIR SEA DIR/SP/G            HT/PER HT/PER
                 (UTC) (F)     (DEG/KT/KT) (MB)    (FT/S) (FT/S)
CHESAPEAKE LIGHT NOT AVBL
64 E VA BEACH    1150   53 51  220/ 12/ 12 1010.3    4/ 7   3/ 7
DUCK             1236   54 47  220/ 11/ 12 1011.6
2 E DUCK         1300      47                N/A     1/ 8
OREGON INLET     1248          190/  7/  8   N/A
13E OREGON INLT  NOT AVBL
HATTERAS CG      1236   57 56  240/  4/  6 1012.3
DIAMOND BUOY     1150   63 68  280/ 10/ 12 1013.3    3/ 4   2/ 5
CAPE LOOKOUT     1200   56     240/  6/  7 1013.0
BEAUFORT LAB     1236   53 51  210/  2/  4 1012.3
30 SE NEW RVR IN 1208   59     300/ 10/ 16 1013.9
30 SE NEW RVR IN 1243      65                N/A     2/ 5
27 SE WRIGHTSVLE 1208   58 60  310/  6/ 10 1013.5
5 SE WRIGHTSVLE  1208   55 55  290/  4/  8 1013.5
225 S CAPE HAT   1150   69 71  190/ 17/ 19 1014.9    5/ 6   2/10
41 SE CHARLESTON 1150   61 68  300/ 14/ 16 1014.7    3/ 6   2/ 8

$$




USA.gov is the U.S. government's official web portal to all federal, state and local government web resources and services.